Cloud_Cover
37 71 100 86 83 100 100 100 100 100 100 100 100 100 100 100 100 100 100 100 100 100
75 100 99 83 100 97 100 100 100 100 100 100 100 100 100 100 100 100 100 100 100 100
100 96 75 99 100 100 100 100 100 100 100 100 100 100 100 100 100 100 100 100 100 100
100 85 64 86 100 100 100 100 100 100 100 100 100 100 100 100 100 100 100 100 100 100
100 78 95 100 100 100 100 100 100 100 100 100 100 100 100 100 100 100 100 100 100 100
100 82 100 100 100 100 100 100 100 100 100 100 100 100 100 100 100 100 100 100 100 99
100 75 80 100 100 100 100 100 100 100 100 100 100 100 100 100 100 100 100 100 100 91
100 34 100 100 100 100 100 100 100 100 100 100 100 100 100 100 100 100 100 100 100 100
100 88 100 100 100 100 100 100 100 100 100 100 100 100 100 100 100 100 100 100 100 100
100 100 100 100 100 100 100 100 100 100 100 100 100 100 100 100 100 100 100 100 100 100
100 100 100 100 100 100 100 100 100 100 100 100 100 100 100 100 100 100 100 100 100 100
100 100 100 100 100 100 100 100 100 100 100 100 100 100 100 100 100 100 100 100 100 100
100 100 100 100 100 100 100 100 100 100 100 100 100 100 100 100 100 100 100 100 100 100
100 100 100 100 100 100 100 100 100 100 100 100 100 100 100 100 100 100 100 100 100 100